Regional Weather Roundup
Issued by NWS

Home | Current Version | Previous Version | Graphics & Text | Print | Product List | Glossary On
Versions: 1 2 3 4 5 6 7 8 9 10 11 12 13 14 15 16 17 18 19 20 21 22 23 24 25 26 27 28 29 30 31 32 33 34 35 36 37 38 39 40 41 42 43 44 45 46 47 48 49 50
000
ASUS43 KTOP 181759
RWRKS

WEATHER ROUNDUP FOR KANSAS
NATIONAL WEATHER SERVICE GOODLAND KS
100 PM CDT THU SEP 18 2014

NOTE:  "FAIR" INDICATES FEW OR NO CLOUDS BELOW 12,000 FEET WITH NO
SIGNIFICANT WEATHER AND/OR OBSTRUCTIONS TO VISIBILITY.

KSZ001>006-013>018-027>032-041>047-181900-
NORTHWEST KANSAS

CITY           SKY/WX    TMP DP  RH WIND       PRES   REMARKS
GOODLAND       SUNNY     75  63  66 SE7       30.00F
6HR MIN TEMP:  62; 6HR MAX TEMP:  75;

HILL CITY      CLOUDY    67  65  93 E8        29.97F FOG
6HR MIN TEMP:  62; 6HR MAX TEMP:  67;

RUSSELL        PTSUNNY   79  67  66 SE21G31   29.93F
6HR MIN TEMP:  62; 6HR MAX TEMP:  79;

$$

KSZ061>065-074>080-084>089-181900-
SOUTHWEST KANSAS

CITY           SKY/WX    TMP DP  RH WIND       PRES   REMARKS
DODGE CITY     SUNNY     88  56  33 S21G26    29.96S
6HR MIN TEMP:  57; 6HR MAX TEMP:  89;

ELKHART          N/A     83  58  42 SE13        N/A
GARDEN CITY    SUNNY     88  52  29 SW14      29.95F
GREAT BEND     MOSUNNY   81  63  54 S25G31    29.95S
LIBERAL        SUNNY     88  57  35 S17       29.99F
PRATT          SUNNY     79  57  47 S24G30    30.00S
$$

KSZ066>073-081>083-090>101-181900-
SOUTHEAST KANSAS

CITY           SKY/WX    TMP DP  RH WIND       PRES   REMARKS
CHANUTE        CLOUDY    67  64  90 N6        29.97F
6HR MIN TEMP:  65; 6HR MAX TEMP:  67; 6HR PCP:  0.01;

COFFEYVILLE    LGT RAIN  68  64  87 SW9       29.93F
6HR MIN TEMP:  65; 6HR MAX TEMP:  75; 6HR PCP:  0.07;

HUTCHINSON     MOSUNNY   82  57  42 S25G32    29.98F
6HR MIN TEMP:  70; 6HR MAX TEMP:  83;

NEWTON         MOSUNNY   77  57  50 S16G24    30.01F
PARSONS        CLOUDY    67  65  93 N7        29.98F
6HR MIN TEMP:  65; 6HR MAX TEMP:  71;

WICHITA INTL   MOSUNNY   82  57  42 S20G26    29.99F
6HR MIN TEMP:  69; 6HR MAX TEMP:  82;

WICHITA JABRA  MOSUNNY   80  57  45 SE18G26   29.98F
6HR MIN TEMP:  67; 6HR MAX TEMP:  80;

WINFIELD       CLOUDY    79  60  52 E7        30.01R
6HR MIN TEMP:  66; 6HR MAX TEMP:  80;

$$

KSZ007>012-019>026-033>040-048>060-102>105-181900-
NORTHEAST KANSAS

CITY           SKY/WX    TMP DP  RH WIND       PRES   REMARKS
CONCORDIA      CLOUDY    73  66  78 S14G21    29.99F
6HR MIN TEMP:  63; 6HR MAX TEMP:  73;

EMPORIA        CLOUDY    68  64  87 NE6       30.00F
6HR MIN TEMP:  64; 6HR MAX TEMP:  68; 6HR PCP:  0.68;

LAWRENCE       CLOUDY    66  61  84 E9        30.01F HAZE
6HR MIN TEMP:  62; 6HR MAX TEMP:  66;

MANHATTAN      CLOUDY    73  66  78 SE6       30.00F
6HR MIN TEMP:  66; 6HR MAX TEMP:  73;

OLATHE IND     CLOUDY    67  63  87 NE9       30.02F
6HR MIN TEMP:  62; 6HR MAX TEMP:  67;

OLATHE EXE     CLOUDY    65  62  90 E9        30.01F
6HR MIN TEMP:  60; 6HR MAX TEMP:  66;

SALINA         MOSUNNY   77  63  61 SE18      29.98F
6HR MIN TEMP:  66; 6HR MAX TEMP:  77; 6HR PCP: TRACE;

TOPEKA BILLARD CLOUDY    68  64  87 E7        30.02S
6HR MIN TEMP:  64; 6HR MAX TEMP:  69;

TOPEKA FORBES  CLOUDY    69  64  84 E8        30.01F
6HR MIN TEMP:  63; 6HR MAX TEMP:  69;

$$


USA.gov is the U.S. government's official web portal to all federal, state and local government web resources and services.